DateTimeUTC,F1_A11,F1_S11,BsB_S11,BsG_S11,BsR_S11,BbsB_S11,BbsG_S11,BbsR_S11,BaB_A11,BaG_A11,BaR_A11,Tu_S11,T_S11,Uu_S11,U_S11,P_S11,T1_A11
2021-09-17T04:00:00Z,00000200,21000000,,,,,,,0000.40,-000.28,0000.26,17.7,25.2,,00.0,0658.6,31.0
2021-09-17T04:01:00Z,00000200,21000000,,,,,,,0000.12,0000.48,0000.13,17.7,25.2,,00.0,0658.6,31.0
2021-09-17T04:02:00Z,00000200,21000000,,,,,,,-000.25,0000.13,0000.18,17.8,25.2,,00.0,0658.6,31.0
2021-09-17T04:03:00Z,00000200,61000000,,,,,,,0000.47,0000.12,-000.28,17.8,25.3,,00.0,0658.6,31.0
2021-09-17T04:04:00Z,00000200,41000000,0000.62,0000.25,-000.07,0000.37,0000.29,-000.26,-000.62,-000.19,-000.14,18.3,25.2,,00.0,0659.5,31.0
2021-09-17T04:05:00Z,00000200,01000000,0000.82,0000.43,0000.25,0000.84,-000.02,0000.13,-000.36,-000.70,-000.12,18.3,25.1,,00.0,0659.6,31.0
2021-09-17T04:06:00Z,00000200,01000000,0000.35,0000.63,0000.16,0000.57,0000.06,0000.19,-000.65,-000.70,-000.78,18.2,25.1,,00.0,0659.6,31.0
2021-09-17T04:07:00Z,00000200,01000000,0000.83,0000.29,0000.04,0000.44,0000.06,-000.04,-000.09,0000.08,-000.03,18.1,25.0,,00.0,0659.6,31.0
2021-09-17T04:08:00Z,00000200,01000000,0000.84,0000.74,0000.01,0000.92,0000.77,-000.17,-000.43,-000.48,-000.24,18.0,25.0,,00.0,0659.6,31.0
2021-09-17T04:09:00Z,00000200,01000000,0002.07,0000.78,0000.12,0001.35,0000.37,0000.18,0000.24,-000.20,0000.12,17.9,24.9,,00.0,0659.6,31.0
2021-09-17T04:10:00Z,00000200,01000000,0002.50,0000.92,0000.69,0000.53,0000.23,0000.10,-000.62,-000.01,-000.24,17.9,24.9,,00.0,0659.6,31.0
2021-09-17T04:11:00Z,00000200,01000000,0002.03,0000.98,0000.35,0000.22,0000.35,0000.39,-000.20,0000.03,-000.12,18.0,24.9,,00.0,0659.6,31.0
2021-09-17T04:12:00Z,00000200,01000000,0000.97,0000.87,-000.04,-000.13,-000.01,0000.28,0000.39,0000.07,-000.11,18.0,24.9,,00.0,0659.6,31.0
2021-09-17T04:13:00Z,00000200,01000000,0000.82,0000.99,0000.10,0000.36,0000.12,0000.20,0000.11,0000.15,0000.59,18.1,24.9,,00.0,0659.6,31.0
2021-09-17T04:14:00Z,00000200,01000000,0000.88,0001.12,0000.35,-000.10,0000.19,0000.08,-000.11,0000.25,0000.01,18.2,25.0,,00.0,0659.6,31.0
2021-09-17T04:15:00Z,00000200,01000000,0000.71,0000.79,-000.31,-000.30,-000.04,0000.06,0000.90,0000.55,0000.57,18.3,25.0,,00.0,0659.6,31.0
2021-09-17T04:16:00Z,00000200,01000000,0000.67,0000.85,0000.14,0001.06,-000.08,0000.23,0000.50,0000.42,-000.21,18.3,25.1,,00.0,0659.6,31.0
2021-09-17T04:17:00Z,00000200,01000000,0000.71,0000.58,-000.06,-000.19,0000.27,0000.11,0000.54,0000.82,0000.54,18.4,25.1,,00.0,0659.6,31.0
2021-09-17T04:18:00Z,00000200,01000000,0000.54,0000.98,-000.03,0000.58,0000.13,-000.21,0000.08,-000.53,0000.32,18.4,25.1,,00.0,0659.6,31.0
2021-09-17T04:19:00Z,00000200,01000000,0000.79,0000.57,0000.20,0000.23,0000.57,0000.29,0000.60,0000.43,0000.08,18.3,25.1,,00.0,0659.6,31.0
2021-09-17T04:20:00Z,00000200,01000000,0001.32,0000.78,0000.24,0000.87,0000.19,0000.17,0000.17,0000.39,0000.44,18.2,25.0,,00.0,0659.6,31.0
2021-09-17T04:21:00Z,00000200,01000000,0000.69,0000.63,0000.15,0000.69,-000.09,0000.20,0000.27,0000.20,0000.13,18.1,25.0,,00.0,0659.6,31.0
2021-09-17T04:22:00Z,00000200,01000000,0001.52,0001.08,0000.33,0000.22,-000.04,-000.14,0000.08,-000.32,-000.37,18.0,24.9,,00.0,0659.6,31.0
2021-09-17T04:23:00Z,00000200,01000000,0001.09,0000.88,-000.09,0000.60,0000.31,-000.15,0000.40,0000.74,0000.65,17.9,24.9,,00.0,0659.6,30.9
2021-09-17T04:24:00Z,00000200,01000000,0000.58,0000.47,-000.50,-000.03,0000.17,-000.19,0000.68,0000.46,0000.44,17.8,24.8,,00.0,0659.6,30.9
2021-09-17T04:25:00Z,00000200,01000000,0000.89,0001.00,0000.12,0000.35,-000.02,0000.41,0000.47,0000.84,0000.60,17.8,24.8,,00.0,0659.6,30.9
2021-09-17T04:26:00Z,00000200,01000000,0001.23,0001.39,0000.78,0000.83,-000.05,0000.06,0000.36,-000.07,0000.14,17.8,24.8,,00.0,0659.6,30.9
2021-09-17T04:27:00Z,00000200,01000000,0001.29,0001.13,0000.27,0000.69,0000.22,-000.08,0000.14,0000.24,0000.00,17.9,24.8,,00.0,0659.6,31.0
2021-09-17T04:28:00Z,00000200,01000000,0000.64,0001.05,0000.08,0000.72,0000.18,-000.12,0000.56,0000.40,0000.43,18.0,24.8,,00.0,0659.5,31.0
2021-09-17T04:29:00Z,00000200,01000000,0001.88,0000.82,0000.10,0001.06,0000.41,0000.10,0000.34,0000.50,0000.58,18.1,24.9,,00.0,0659.6,31.0
2021-09-17T04:30:00Z,00000200,01000000,0000.70,0000.64,0000.03,0000.61,0000.21,-000.12,0000.32,0000.52,-000.14,18.2,24.9,,00.0,0659.6,31.0
2021-09-17T04:31:00Z,00000200,01000000,0001.61,0000.85,-000.07,0001.00,0000.23,-000.04,0000.22,-000.12,0000.08,18.2,24.9,,00.0,0659.6,31.0
2021-09-17T04:32:00Z,00000200,01000000,0001.05,0000.53,0000.08,0000.71,0000.29,-000.05,0000.22,0000.27,0000.40,18.3,25.0,,00.0,0659.6,31.0
2021-09-17T04:33:00Z,00000200,01000000,0001.26,0000.65,0000.15,0000.78,-000.07,0000.12,0000.34,0000.27,-000.12,18.4,25.0,,00.0,0659.6,31.0
2021-09-17T04:34:00Z,00000200,01000000,0001.03,0000.97,0000.02,0000.32,0000.19,0000.42,0000.30,0000.49,0000.57,18.4,25.1,,00.0,0659.6,31.0
2021-09-17T04:35:00Z,00000200,01000000,0000.91,0000.60,-000.12,-000.16,0000.33,0000.33,-000.28,-000.08,0000.07,18.5,25.1,,00.0,0659.6,31.0
2021-09-17T04:36:00Z,00000200,01000000,0000.68,0000.64,0000.24,0000.38,-000.12,0000.16,0000.13,-000.32,-000.24,18.4,25.1,,00.0,0659.6,31.0
2021-09-17T04:37:00Z,00000200,01000000,0002.56,0001.40,0000.47,0000.35,0000.25,-000.08,0000.03,0000.40,-000.15,18.4,25.1,,00.0,0659.6,31.0
2021-09-17T04:38:00Z,00000200,01000000,0001.60,0001.33,0000.35,0000.22,0000.02,-000.26,-000.17,-000.33,0000.04,18.3,25.0,,00.0,0659.6,31.0
2021-09-17T04:39:00Z,00000200,01000000,0001.78,0001.26,0000.43,0001.00,0000.13,-000.13,0000.43,0000.55,0000.24,18.2,25.0,,00.0,0659.6,31.0
2021-09-17T04:40:00Z,00000200,01000000,0001.59,0000.95,0000.45,0001.25,0000.48,-000.29,0000.68,0000.66,0000.67,18.2,24.9,,00.0,0659.6,31.0
2021-09-17T04:41:00Z,00000200,01000000,0000.96,0001.37,0000.19,0000.48,0000.09,0000.06,0000.60,0000.14,0000.68,18.2,25.0,,00.0,0659.5,31.0
2021-09-17T04:42:00Z,00000200,01000000,0001.43,0001.68,0000.49,0000.48,0000.12,0000.05,0000.04,0000.57,-000.17,18.3,25.0,,00.0,0659.5,31.0
2021-09-17T04:43:00Z,00000200,01000000,0001.72,0001.23,0000.46,-000.19,0000.06,0000.38,0000.72,0000.31,0000.52,18.3,25.0,,00.0,0659.5,31.0
2021-09-17T04:44:00Z,00000200,01000000,0001.16,0001.36,0000.31,0000.41,0000.50,0000.01,-000.02,0000.48,0000.20,18.4,25.0,,00.0,0659.6,31.0
2021-09-17T04:45:00Z,00000200,01000000,0001.02,0001.10,0000.22,0000.30,0000.10,-000.06,0000.70,0000.05,0000.19,18.5,25.1,,00.0,0659.5,31.0
2021-09-17T04:46:00Z,00000200,01000000,0000.98,0000.93,0000.30,0000.86,0000.28,-000.01,0000.11,0000.29,-000.02,18.5,25.1,,00.0,0659.6,31.0
2021-09-17T04:47:00Z,00000200,01000000,0001.00,0001.07,0000.30,-000.33,0000.24,-000.01,-000.01,0000.21,0000.17,18.6,25.2,,00.0,0659.5,31.0
2021-09-17T04:48:00Z,00000200,01000000,0000.84,0001.39,0000.37,-000.09,0000.27,0000.25,0000.30,0000.00,0000.46,18.6,25.2,,00.0,0659.5,31.1
2021-09-17T04:49:00Z,00000200,01000000,0001.78,0000.71,0000.55,0000.16,0000.01,0000.17,0000.05,0000.13,-000.14,18.6,25.2,,00.0,0659.5,31.0
2021-09-17T04:50:00Z,00000200,01000000,0000.49,0000.77,-000.18,0000.66,0000.33,-000.02,0000.01,0000.03,0000.09,18.5,25.2,,00.0,0659.5,31.0
2021-09-17T04:51:00Z,00000200,01000000,0001.28,0000.89,0000.25,0000.46,0000.30,0000.13,-000.19,-000.32,-000.23,18.4,25.1,,00.0,0659.5,31.0
2021-09-17T04:52:00Z,00000200,01000000,-000.19,0000.50,-000.09,0000.54,0000.17,-000.19,-000.08,-000.28,-000.18,18.3,25.1,,00.0,0659.4,31.0
2021-09-17T04:53:00Z,00000200,01000000,0001.36,0000.59,-000.22,0000.10,-000.09,0000.28,-000.13,0000.08,0000.12,18.2,25.0,,00.0,0659.4,31.0
2021-09-17T04:54:00Z,00000200,01000000,0000.05,0000.69,0000.34,0000.61,0000.03,-000.04,0000.34,0000.53,0000.39,18.1,24.9,,00.0,0659.4,31.0
2021-09-17T04:55:00Z,00000200,01000000,0001.22,0000.06,-000.10,0000.30,0000.12,0000.12,0000.48,0000.49,0000.28,18.1,24.9,,00.0,0659.4,30.9
2021-09-17T04:56:00Z,00000200,01000000,0000.41,0000.32,-000.17,0000.31,-000.01,0000.10,0000.29,-000.01,-000.08,18.2,24.9,,00.0,0659.4,31.0
2021-09-17T04:57:00Z,00000200,41000000,,,,,,,0000.07,0000.14,0000.57,18.2,25.0,,00.0,0659.4,31.0
2021-09-17T04:58:00Z,00000200,61000000,,,,,,,0000.01,-000.02,-000.03,17.9,25.2,,00.0,0658.4,31.0
2021-09-17T04:59:00Z,00000200,21000000,,,,,,,0000.05,-000.00,-000.13,17.9,25.3,,00.0,0658.4,31.0
